owner,sensor,date,latitude,longitude,vertical_datum,mass_concentration_of_oxygen_in_sea_water,qcFlag 
DISL,ioos:station:DISL:BSCA:1,2012-09-01T00:00:00Z,30.3288,-87.8293,1.96,6.93,1111122 
DISL,ioos:station:DISL:BSCA:1,2012-09-01T00:30:00Z,30.3288,-87.8293,1.942,6.43,1111122 
DISL,ioos:station:DISL:BSCA:1,2012-09-01T01:00:00Z,30.3288,-87.8293,1.924,6.43,1111122 
DISL,ioos:station:DISL:BSCA:1,2012-09-01T01:30:00Z,30.3288,-87.8293,1.907,6.66,1111122 
DISL,ioos:station:DISL:BSCA:1,2012-09-01T02:00:00Z,30.3288,-87.8293,1.901,6.83,1111122 
DISL,ioos:station:DISL:BSCA:1,2012-09-01T02:30:00Z,30.3288,-87.8293,1.896,6.55,1111122 
DISL,ioos:station:DISL:BSCA:1,2012-09-01T03:00:00Z,30.3288,-87.8293,1.897,7.01,1111122 
DISL,ioos:station:DISL:BSCA:1,2012-09-01T03:30:00Z,30.3288,-87.8293,1.905,6.68,1111122 
DISL,ioos:station:DISL:BSCA:1,2012-09-01T04:00:00Z,30.3288,-87.8293,1.91,7.02,1111122 
DISL,ioos:station:DISL:BSCA:1,2012-09-01T04:30:00Z,30.3288,-87.8293,1.93,7.16,1111122 
DISL,ioos:station:DISL:BSCA:1,2012-09-01T05:00:00Z,30.3288,-87.8293,1.94,7.22,1111122 
DISL,ioos:station:DISL:BSCA:1,2012-09-01T05:30:00Z,30.3288,-87.8293,1.952,7.18,1111122 
DISL,ioos:station:DISL:BSCA:1,2012-09-01T06:00:00Z,30.3288,-87.8293,1.963,6.95,1111122 
DISL,ioos:station:DISL:BSCA:1,2012-09-01T06:30:00Z,30.3288,-87.8293,1.966,6.65,1111122 
DISL,ioos:station:DISL:BSCA:1,2012-09-01T07:00:00Z,30.3288,-87.8293,1.972,6.43,1111122 
DISL,ioos:station:DISL:BSCA:1,2012-09-01T07:30:00Z,30.3288,-87.8293,1.969,5.98,1111122 
DISL,ioos:station:DISL:BSCA:1,2012-09-01T08:00:00Z,30.3288,-87.8293,1.969,5.78,1111122 
DISL,ioos:station:DISL:BSCA:1,2012-09-01T08:30:00Z,30.3288,-87.8293,1.968,6.25,1111122 
DISL,ioos:station:DISL:BSCA:1,2012-09-01T09:00:00Z,30.3288,-87.8293,1.962,5.44,1111122 
DISL,ioos:station:DISL:BSCA:1,2012-09-01T09:30:00Z,30.3288,-87.8293,1.951,5.87,1111122 
DISL,ioos:station:DISL:BSCA:1,2012-09-01T10:00:00Z,30.3288,-87.8293,1.952,5.55,1111122 
DISL,ioos:station:DISL:BSCA:1,2012-09-01T10:30:00Z,30.3288,-87.8293,1.948,6.0,1111122 
DISL,ioos:station:DISL:BSCA:1,2012-09-01T11:00:00Z,30.3288,-87.8293,1.946,5.95,1111122 
DISL,ioos:station:DISL:BSCA:1,2012-09-01T11:30:00Z,30.3288,-87.8293,1.934,5.46,1111122 
DISL,ioos:station:DISL:BSCA:1,2012-09-01T12:00:00Z,30.3288,-87.8293,1.937,6.19,1111122 
DISL,ioos:station:DISL:BSCA:1,2012-09-01T12:30:00Z,30.3288,-87.8293,1.941,6.08,1111122 
DISL,ioos:station:DISL:BSCA:1,2012-09-01T13:00:00Z,30.3288,-87.8293,1.957,5.94,1111122 
DISL,ioos:station:DISL:BSCA:1,2012-09-01T13:30:00Z,30.3288,-87.8293,1.978,5.79,1111122 
DISL,ioos:station:DISL:BSCA:1,2012-09-01T14:00:00Z,30.3288,-87.8293,2.004,5.97,1111122 
DISL,ioos:station:DISL:BSCA:1,2012-09-01T14:30:00Z,30.3288,-87.8293,2.028,5.76,1111122 
DISL,ioos:station:DISL:BSCA:1,2012-09-01T15:00:00Z,30.3288,-87.8293,2.042,5.56,1111122 
DISL,ioos:station:DISL:BSCA:1,2012-09-01T15:30:00Z,30.3288,-87.8293,2.064,5.08,1111122 
DISL,ioos:station:DISL:BSCA:1,2012-09-01T16:00:00Z,30.3288,-87.8293,2.079,4.82,1111122 
DISL,ioos:station:DISL:BSCA:1,2012-09-01T16:30:00Z,30.3288,-87.8293,2.094,3.65,1111122 
DISL,ioos:station:DISL:BSCA:1,2012-09-01T17:00:00Z,30.3288,-87.8293,2.1,4.17,1111122 
DISL,ioos:station:DISL:BSCA:1,2012-09-01T17:30:00Z,30.3288,-87.8293,2.108,5.09,1111122 
DISL,ioos:station:DISL:BSCA:1,2012-09-01T18:00:00Z,30.3288,-87.8293,2.116,5.67,1111122 
DISL,ioos:station:DISL:BSCA:1,2012-09-01T18:30:00Z,30.3288,-87.8293,2.122,6.18,1111122 
DISL,ioos:station:DISL:BSCA:1,2012-09-01T19:00:00Z,30.3288,-87.8293,2.126,6.4,1111122 
DISL,ioos:station:DISL:BSCA:1,2012-09-01T19:30:00Z,30.3288,-87.8293,2.123,6.97,1111122 
DISL,ioos:station:DISL:BSCA:1,2012-09-01T20:00:00Z,30.3288,-87.8293,2.109,6.95,1111122 
DISL,ioos:station:DISL:BSCA:1,2012-09-01T20:30:00Z,30.3288,-87.8293,2.105,7.98,1111122 
DISL,ioos:station:DISL:BSCA:1,2012-09-01T21:00:00Z,30.3288,-87.8293,2.071,8.86,1111122 
DISL,ioos:station:DISL:BSCA:1,2012-09-01T21:30:00Z,30.3288,-87.8293,2.053,9.34,1111122 
DISL,ioos:station:DISL:BSCA:1,2012-09-01T22:00:00Z,30.3288,-87.8293,2.043,8.86,1111122 
DISL,ioos:station:DISL:BSCA:1,2012-09-01T22:30:00Z,30.3288,-87.8293,2.018,9.86,1111122 
DISL,ioos:station:DISL:BSCA:1,2012-09-01T23:00:00Z,30.3288,-87.8293,2.003,10.21,1111122 
DISL,ioos:station:DISL:BSCA:1,2012-09-01T23:30:00Z,30.3288,-87.8293,1.998,9.51,1111122 
DISL,ioos:station:DISL:BSCA:1,2012-09-02T00:00:00Z,30.3288,-87.8293,1.983,9.4,1111122 
DISL,ioos:station:DISL:BSCA:1,2012-09-02T00:30:00Z,30.3288,-87.8293,1.981,9.09,1111122 
DISL,ioos:station:DISL:BSCA:1,2012-09-02T01:00:00Z,30.3288,-87.8293,1.978,9.67,1111122 
DISL,ioos:station:DISL:BSCA:1,2012-09-02T01:30:00Z,30.3288,-87.8293,1.979,9.84,1111122 
DISL,ioos:station:DISL:BSCA:1,2012-09-02T02:00:00Z,30.3288,-87.8293,1.97,9.08,1111122 
DISL,ioos:station:DISL:BSCA:1,2012-09-02T02:30:00Z,30.3288,-87.8293,1.97,8.71,1111122 
DISL,ioos:station:DISL:BSCA:1,2012-09-02T03:00:00Z,30.3288,-87.8293,1.962,7.94,1111122 
DISL,ioos:station:DISL:BSCA:1,2012-09-02T03:30:00Z,30.3288,-87.8293,1.964,8.07,1111122 
DISL,ioos:station:DISL:BSCA:1,2012-09-02T04:00:00Z,30.3288,-87.8293,1.974,8.52,1111122 
DISL,ioos:station:DISL:BSCA:1,2012-09-02T04:30:00Z,30.3288,-87.8293,2.002,8.58,1111122 
DISL,ioos:station:DISL:BSCA:1,2012-09-02T05:00:00Z,30.3288,-87.8293,2.009,7.21,1111122 
DISL,ioos:station:DISL:BSCA:1,2012-09-02T05:30:00Z,30.3288,-87.8293,2.032,7.76,1111122 
DISL,ioos:station:DISL:BSCA:1,2012-09-02T06:00:00Z,30.3288,-87.8293,2.036,7.95,1111122 
DISL,ioos:station:DISL:BSCA:1,2012-09-02T06:30:00Z,30.3288,-87.8293,2.043,7.6,1111122 
DISL,ioos:station:DISL:BSCA:1,2012-09-02T07:00:00Z,30.3288,-87.8293,2.034,7.22,1111122 
DISL,ioos:station:DISL:BSCA:1,2012-09-02T07:30:00Z,30.3288,-87.8293,2.029,7.51,1111122 
DISL,ioos:station:DISL:BSCA:1,2012-09-02T08:00:00Z,30.3288,-87.8293,2.022,6.97,1111122 
DISL,ioos:station:DISL:BSCA:1,2012-09-02T08:30:00Z,30.3288,-87.8293,2.01,6.97,1111122 
DISL,ioos:station:DISL:BSCA:1,2012-09-02T09:00:00Z,30.3288,-87.8293,2.011,7.42,1111122 
DISL,ioos:station:DISL:BSCA:1,2012-09-02T09:30:00Z,30.3288,-87.8293,1.989,7.45,1111122 
DISL,ioos:station:DISL:BSCA:1,2012-09-02T10:00:00Z,30.3288,-87.8293,1.985,7.5,1111122 
DISL,ioos:station:DISL:BSCA:1,2012-09-02T10:30:00Z,30.3288,-87.8293,1.984,7.24,1111122 
DISL,ioos:station:DISL:BSCA:1,2012-09-02T11:00:00Z,30.3288,-87.8293,1.974,7.34,1111122 
DISL,ioos:station:DISL:BSCA:1,2012-09-02T11:30:00Z,30.3288,-87.8293,1.971,7.26,1111122 
DISL,ioos:station:DISL:BSCA:1,2012-09-02T12:00:00Z,30.3288,-87.8293,1.965,7.1,1111122 
DISL,ioos:station:DISL:BSCA:1,2012-09-02T12:30:00Z,30.3288,-87.8293,1.952,6.55,1111122 
DISL,ioos:station:DISL:BSCA:1,2012-09-02T13:00:00Z,30.3288,-87.8293,1.953,6.88,1111122 
DISL,ioos:station:DISL:BSCA:1,2012-09-02T13:30:00Z,30.3288,-87.8293,1.954,6.88,1111122 
DISL,ioos:station:DISL:BSCA:1,2012-09-02T14:00:00Z,30.3288,-87.8293,1.973,6.81,1111122 
DISL,ioos:station:DISL:BSCA:1,2012-09-02T14:30:00Z,30.3288,-87.8293,1.986,6.64,1111122 
DISL,ioos:station:DISL:BSCA:1,2012-09-02T15:00:00Z,30.3288,-87.8293,1.998,6.58,1111122 
DISL,ioos:station:DISL:BSCA:1,2012-09-02T15:30:00Z,30.3288,-87.8293,2.011,7.18,1111122 
DISL,ioos:station:DISL:BSCA:1,2012-09-02T16:00:00Z,30.3288,-87.8293,2.032,7.34,1111122 
DISL,ioos:station:DISL:BSCA:1,2012-09-02T16:30:00Z,30.3288,-87.8293,2.011,7.25,1111122 
DISL,ioos:station:DISL:BSCA:1,2012-09-02T17:00:00Z,30.3288,-87.8293,2.03,7.65,1111122 
DISL,ioos:station:DISL:BSCA:1,2012-09-02T17:30:00Z,30.3288,-87.8293,2.035,7.34,1111122 
DISL,ioos:station:DISL:BSCA:1,2012-09-02T18:00:00Z,30.3288,-87.8293,2.05,6.45,1111122 
DISL,ioos:station:DISL:BSCA:1,2012-09-02T18:30:00Z,30.3288,-87.8293,2.082,7.07,1111122 
DISL,ioos:station:DISL:BSCA:1,2012-09-02T19:00:00Z,30.3288,-87.8293,2.093,7.32,1111122 
DISL,ioos:station:DISL:BSCA:1,2012-09-02T19:30:00Z,30.3288,-87.8293,2.104,6.52,1111122 
DISL,ioos:station:DISL:BSCA:1,2012-09-02T20:00:00Z,30.3288,-87.8293,2.111,5.28,1111122 
DISL,ioos:station:DISL:BSCA:1,2012-09-02T20:30:00Z,30.3288,-87.8293,2.118,8.16,1111122 
DISL,ioos:station:DISL:BSCA:1,2012-09-02T21:00:00Z,30.3288,-87.8293,2.115,7.77,1111122 
DISL,ioos:station:DISL:BSCA:1,2012-09-02T21:30:00Z,30.3288,-87.8293,2.105,6.14,1111122 
DISL,ioos:station:DISL:BSCA:1,2012-09-02T22:00:00Z,30.3288,-87.8293,2.098,7.46,1111122 
DISL,ioos:station:DISL:BSCA:1,2012-09-02T22:30:00Z,30.3288,-87.8293,2.093,9.49,1111122 
DISL,ioos:station:DISL:BSCA:1,2012-09-02T23:00:00Z,30.3288,-87.8293,2.1,9.86,1111122 
DISL,ioos:station:DISL:BSCA:1,2012-09-02T23:30:00Z,30.3288,-87.8293,2.09,9.75,1111122 
DISL,ioos:station:DISL:BSCA:1,2012-09-03T00:00:00Z,30.3288,-87.8293,2.086,9.97,1111122 
DISL,ioos:station:DISL:BSCA:1,2012-09-03T00:30:00Z,30.3288,-87.8293,2.087,9.86,1111122 
DISL,ioos:station:DISL:BSCA:1,2012-09-03T01:00:00Z,30.3288,-87.8293,2.081,9.87,1111122 
DISL,ioos:station:DISL:BSCA:1,2012-09-03T01:30:00Z,30.3288,-87.8293,2.075,9.79,1111122 
DISL,ioos:station:DISL:BSCA:1,2012-09-03T02:00:00Z,30.3288,-87.8293,2.106,9.32,1111122 
DISL,ioos:station:DISL:BSCA:1,2012-09-03T02:30:00Z,30.3288,-87.8293,2.109,9.1,1111122 
DISL,ioos:station:DISL:BSCA:1,2012-09-03T03:00:00Z,30.3288,-87.8293,2.121,8.89,1111122 
DISL,ioos:station:DISL:BSCA:1,2012-09-03T03:30:00Z,30.3288,-87.8293,2.13,8.64,1111122 
DISL,ioos:station:DISL:BSCA:1,2012-09-03T04:00:00Z,30.3288,-87.8293,2.143,8.68,1111122 
DISL,ioos:station:DISL:BSCA:1,2012-09-03T04:30:00Z,30.3288,-87.8293,2.151,8.72,1111122 
DISL,ioos:station:DISL:BSCA:1,2012-09-03T05:00:00Z,30.3288,-87.8293,2.163,8.58,1111122 
DISL,ioos:station:DISL:BSCA:1,2012-09-03T05:30:00Z,30.3288,-87.8293,2.172,8.56,1111122 
DISL,ioos:station:DISL:BSCA:1,2012-09-03T06:00:00Z,30.3288,-87.8293,2.18,8.36,1111122 
DISL,ioos:station:DISL:BSCA:1,2012-09-03T06:30:00Z,30.3288,-87.8293,2.171,7.98,1111122 
DISL,ioos:station:DISL:BSCA:1,2012-09-03T07:00:00Z,30.3288,-87.8293,2.168,7.92,1111122 
DISL,ioos:station:DISL:BSCA:1,2012-09-03T07:30:00Z,30.3288,-87.8293,2.159,7.88,1111122 
DISL,ioos:station:DISL:BSCA:1,2012-09-03T08:00:00Z,30.3288,-87.8293,2.147,7.7,1111122 
DISL,ioos:station:DISL:BSCA:1,2012-09-03T08:30:00Z,30.3288,-87.8293,2.109,7.66,1111122 
DISL,ioos:station:DISL:BSCA:1,2012-09-03T09:00:00Z,30.3288,-87.8293,2.117,7.56,1111122 
DISL,ioos:station:DISL:BSCA:1,2012-09-03T09:30:00Z,30.3288,-87.8293,2.099,7.36,1111122 
DISL,ioos:station:DISL:BSCA:1,2012-09-03T10:00:00Z,30.3288,-87.8293,2.086,7.23,1111122 
DISL,ioos:station:DISL:BSCA:1,2012-09-03T10:30:00Z,30.3288,-87.8293,2.072,7.15,1111122 
DISL,ioos:station:DISL:BSCA:1,2012-09-03T11:00:00Z,30.3288,-87.8293,2.066,7.03,1111122 
DISL,ioos:station:DISL:BSCA:1,2012-09-03T11:30:00Z,30.3288,-87.8293,1.97,7.13,1111122 
DISL,ioos:station:DISL:BSCA:1,2012-09-03T12:00:00Z,30.3288,-87.8293,2.035,7.0,1111122 
DISL,ioos:station:DISL:BSCA:1,2012-09-03T12:30:00Z,30.3288,-87.8293,1.939,7.07,1111122 
DISL,ioos:station:DISL:BSCA:1,2012-09-03T13:00:00Z,30.3288,-87.8293,2.033,6.89,1111122 
DISL,ioos:station:DISL:BSCA:1,2012-09-03T13:30:00Z,30.3288,-87.8293,2.028,6.95,1111122 
DISL,ioos:station:DISL:BSCA:1,2012-09-03T14:00:00Z,30.3288,-87.8293,2.023,6.79,1111122 
DISL,ioos:station:DISL:BSCA:1,2012-09-03T14:30:00Z,30.3288,-87.8293,2.005,6.59,1111122 
DISL,ioos:station:DISL:BSCA:1,2012-09-03T15:00:00Z,30.3288,-87.8293,2.0,6.71,1111122 
DISL,ioos:station:DISL:BSCA:1,2012-09-03T15:30:00Z,30.3288,-87.8293,2.006,7.03,1111122 
DISL,ioos:station:DISL:BSCA:1,2012-09-03T16:00:00Z,30.3288,-87.8293,2.026,6.88,1111122 
DISL,ioos:station:DISL:BSCA:1,2012-09-03T16:30:00Z,30.3288,-87.8293,2.033,6.8,1111122 
DISL,ioos:station:DISL:BSCA:1,2012-09-03T17:00:00Z,30.3288,-87.8293,2.039,6.67,1111122 
DISL,ioos:station:DISL:BSCA:1,2012-09-03T17:30:00Z,30.3288,-87.8293,2.042,6.05,1111122 
DISL,ioos:station:DISL:BSCA:1,2012-09-03T18:00:00Z,30.3288,-87.8293,2.055,6.25,1111122 
DISL,ioos:station:DISL:BSCA:1,2012-09-03T18:30:00Z,30.3288,-87.8293,2.055,6.19,1111122 
DISL,ioos:station:DISL:BSCA:1,2012-09-03T19:00:00Z,30.3288,-87.8293,2.071,5.97,1111122 
DISL,ioos:station:DISL:BSCA:1,2012-09-03T19:30:00Z,30.3288,-87.8293,2.077,6.1,1111122 
DISL,ioos:station:DISL:BSCA:1,2012-09-03T20:00:00Z,30.3288,-87.8293,2.093,6.4,1111122 
DISL,ioos:station:DISL:BSCA:1,2012-09-03T20:30:00Z,30.3288,-87.8293,2.094,6.08,1111122 
DISL,ioos:station:DISL:BSCA:1,2012-09-03T21:00:00Z,30.3288,-87.8293,2.094,6.53,1111122 
DISL,ioos:station:DISL:BSCA:1,2012-09-03T21:30:00Z,30.3288,-87.8293,2.092,7.23,1111122 
DISL,ioos:station:DISL:BSCA:1,2012-09-03T22:00:00Z,30.3288,-87.8293,2.083,7.18,1111122 
DISL,ioos:station:DISL:BSCA:1,2012-09-03T22:30:00Z,30.3288,-87.8293,2.086,7.19,1111122 
DISL,ioos:station:DISL:BSCA:1,2012-09-03T23:00:00Z,30.3288,-87.8293,2.072,7.67,1111122 
DISL,ioos:station:DISL:BSCA:1,2012-09-03T23:30:00Z,30.3288,-87.8293,2.061,7.44,1111122 
DISL,ioos:station:DISL:BSCA:1,2012-09-04T00:00:00Z,30.3288,-87.8293,2.053,7.59,1111122 
DISL,ioos:station:DISL:BSCA:1,2012-09-04T00:30:00Z,30.3288,-87.8293,2.042,7.52,1111122 
DISL,ioos:station:DISL:BSCA:1,2012-09-04T01:00:00Z,30.3288,-87.8293,2.06,7.49,1111122 
DISL,ioos:station:DISL:BSCA:1,2012-09-04T01:30:00Z,30.3288,-87.8293,2.07,7.34,1111122 
DISL,ioos:station:DISL:BSCA:1,2012-09-04T02:00:00Z,30.3288,-87.8293,2.08,6.97,1111122 
DISL,ioos:station:DISL:BSCA:1,2012-09-04T02:30:00Z,30.3288,-87.8293,2.06,7.05,1111122 
DISL,ioos:station:DISL:BSCA:1,2012-09-04T03:00:00Z,30.3288,-87.8293,2.115,7.0,1111122 
DISL,ioos:station:DISL:BSCA:1,2012-09-04T03:30:00Z,30.3288,-87.8293,2.12,7.22,1111122 
DISL,ioos:station:DISL:BSCA:1,2012-09-04T04:00:00Z,30.3288,-87.8293,2.114,7.17,1111122 
DISL,ioos:station:DISL:BSCA:1,2012-09-04T04:30:00Z,30.3288,-87.8293,2.152,7.18,1111122 
DISL,ioos:station:DISL:BSCA:1,2012-09-04T05:00:00Z,30.3288,-87.8293,2.168,7.13,1111122 
DISL,ioos:station:DISL:BSCA:1,2012-09-04T05:30:00Z,30.3288,-87.8293,2.166,6.98,1111122 
DISL,ioos:station:DISL:BSCA:1,2012-09-04T06:00:00Z,30.3288,-87.8293,2.181,6.93,1111122 
DISL,ioos:station:DISL:BSCA:1,2012-09-04T06:30:00Z,30.3288,-87.8293,2.269,6.82,1111122 
DISL,ioos:station:DISL:BSCA:1,2012-09-04T07:00:00Z,30.3288,-87.8293,2.224,6.77,1111122 
DISL,ioos:station:DISL:BSCA:1,2012-09-04T07:30:00Z,30.3288,-87.8293,2.266,6.72,1111122 
DISL,ioos:station:DISL:BSCA:1,2012-09-04T08:00:00Z,30.3288,-87.8293,2.203,6.61,1111122 
DISL,ioos:station:DISL:BSCA:1,2012-09-04T08:30:00Z,30.3288,-87.8293,2.18,6.55,1111122 
DISL,ioos:station:DISL:BSCA:1,2012-09-04T09:00:00Z,30.3288,-87.8293,2.16,6.52,1111122 
DISL,ioos:station:DISL:BSCA:1,2012-09-04T09:30:00Z,30.3288,-87.8293,2.152,6.55,1111122 
DISL,ioos:station:DISL:BSCA:1,2012-09-04T10:00:00Z,30.3288,-87.8293,2.108,6.42,1111122 
DISL,ioos:station:DISL:BSCA:1,2012-09-04T10:30:00Z,30.3288,-87.8293,2.105,6.31,1111122 
DISL,ioos:station:DISL:BSCA:1,2012-09-04T11:00:00Z,30.3288,-87.8293,2.084,6.17,1111122 
DISL,ioos:station:DISL:BSCA:1,2012-09-04T11:30:00Z,30.3288,-87.8293,2.127,6.06,1111122 
DISL,ioos:station:DISL:BSCA:1,2012-09-04T12:00:00Z,30.3288,-87.8293,2.085,6.01,1111122 
DISL,ioos:station:DISL:BSCA:1,2012-09-04T12:30:00Z,30.3288,-87.8293,2.155,5.97,1111122 
DISL,ioos:station:DISL:BSCA:1,2012-09-04T13:00:00Z,30.3288,-87.8293,2.081,5.86,1111122 
DISL,ioos:station:DISL:BSCA:1,2012-09-04T13:30:00Z,30.3288,-87.8293,1.964,5.68,1111122 
DISL,ioos:station:DISL:BSCA:1,2012-09-04T14:00:00Z,30.3288,-87.8293,2.056,5.69,1111122 
DISL,ioos:station:DISL:BSCA:1,2012-09-04T14:30:00Z,30.3288,-87.8293,2.003,5.97,1111122 
DISL,ioos:station:DISL:BSCA:1,2012-09-04T15:00:00Z,30.3288,-87.8293,2.055,6.18,1111122 
DISL,ioos:station:DISL:BSCA:1,2012-09-04T15:30:00Z,30.3288,-87.8293,2.051,6.33,1111122 
DISL,ioos:station:DISL:BSCA:1,2012-09-04T16:00:00Z,30.3288,-87.8293,1.99,6.33,1111122 
DISL,ioos:station:DISL:BSCA:1,2012-09-04T16:30:00Z,30.3288,-87.8293,2.016,6.18,1111122 
DISL,ioos:station:DISL:BSCA:1,2012-09-04T17:00:00Z,30.3288,-87.8293,2.071,6.17,1111122 
DISL,ioos:station:DISL:BSCA:1,2012-09-04T17:30:00Z,30.3288,-87.8293,2.003,6.44,1111122 
DISL,ioos:station:DISL:BSCA:1,2012-09-04T18:00:00Z,30.3288,-87.8293,2.004,6.39,1111122 
DISL,ioos:station:DISL:BSCA:1,2012-09-04T18:30:00Z,30.3288,-87.8293,1.94,6.49,1111122 
DISL,ioos:station:DISL:BSCA:1,2012-09-04T19:00:00Z,30.3288,-87.8293,1.988,6.4,1111122 
DISL,ioos:station:DISL:BSCA:1,2012-09-04T19:30:00Z,30.3288,-87.8293,2.001,6.43,1111122 
DISL,ioos:station:DISL:BSCA:1,2012-09-04T20:00:00Z,30.3288,-87.8293,2.015,6.14,1111122 
DISL,ioos:station:DISL:BSCA:1,2012-09-04T20:30:00Z,30.3288,-87.8293,2.027,6.23,1111122 
DISL,ioos:station:DISL:BSCA:1,2012-09-04T21:00:00Z,30.3288,-87.8293,2.052,6.29,1111122 
DISL,ioos:station:DISL:BSCA:1,2012-09-04T21:30:00Z,30.3288,-87.8293,2.066,6.3,1111122 
DISL,ioos:station:DISL:BSCA:1,2012-09-04T22:00:00Z,30.3288,-87.8293,2.06,6.25,1111122 
DISL,ioos:station:DISL:BSCA:1,2012-09-04T22:30:00Z,30.3288,-87.8293,2.062,6.15,1111122 
DISL,ioos:station:DISL:BSCA:1,2012-09-04T23:00:00Z,30.3288,-87.8293,2.055,5.96,1111122 
DISL,ioos:station:DISL:BSCA:1,2012-09-04T23:30:00Z,30.3288,-87.8293,2.054,5.85,1111122 
DISL,ioos:station:DISL:BSCA:1,2012-09-05T00:00:00Z,30.3288,-87.8293,2.085,5.81,1111122 
DISL,ioos:station:DISL:BSCA:1,2012-09-05T00:30:00Z,30.3288,-87.8293,2.059,5.88,1111122 
DISL,ioos:station:DISL:BSCA:1,2012-09-05T01:00:00Z,30.3288,-87.8293,2.064,5.92,1111122 
DISL,ioos:station:DISL:BSCA:1,2012-09-05T01:30:00Z,30.3288,-87.8293,2.065,6.07,1111122 
DISL,ioos:station:DISL:BSCA:1,2012-09-05T02:00:00Z,30.3288,-87.8293,2.075,5.87,1111122 
DISL,ioos:station:DISL:BSCA:1,2012-09-05T02:30:00Z,30.3288,-87.8293,2.161,5.71,1111122 
DISL,ioos:station:DISL:BSCA:1,2012-09-05T03:00:00Z,30.3288,-87.8293,2.223,6.01,1111122 
DISL,ioos:station:DISL:BSCA:1,2012-09-05T03:30:00Z,30.3288,-87.8293,2.216,6.06,1111122 
DISL,ioos:station:DISL:BSCA:1,2012-09-05T04:00:00Z,30.3288,-87.8293,2.24,6.09,1111122 
DISL,ioos:station:DISL:BSCA:1,2012-09-05T04:30:00Z,30.3288,-87.8293,2.218,6.06,1111122 
DISL,ioos:station:DISL:BSCA:1,2012-09-05T05:00:00Z,30.3288,-87.8293,2.152,5.99,1111122 
DISL,ioos:station:DISL:BSCA:1,2012-09-05T05:30:00Z,30.3288,-87.8293,2.148,6.06,1111122 
DISL,ioos:station:DISL:BSCA:1,2012-09-05T06:00:00Z,30.3288,-87.8293,2.146,5.86,1111122 
DISL,ioos:station:DISL:BSCA:1,2012-09-05T06:30:00Z,30.3288,-87.8293,2.161,5.71,1111122 
DISL,ioos:station:DISL:BSCA:1,2012-09-05T07:00:00Z,30.3288,-87.8293,2.204,5.63,1111122 
DISL,ioos:station:DISL:BSCA:1,2012-09-05T07:30:00Z,30.3288,-87.8293,2.22,5.83,1111122 
DISL,ioos:station:DISL:BSCA:1,2012-09-05T08:00:00Z,30.3288,-87.8293,2.252,5.65,1111122 
DISL,ioos:station:DISL:BSCA:1,2012-09-05T08:30:00Z,30.3288,-87.8293,2.189,5.44,1111122 
DISL,ioos:station:DISL:BSCA:1,2012-09-05T09:00:00Z,30.3288,-87.8293,2.166,5.87,1111122 
DISL,ioos:station:DISL:BSCA:1,2012-09-05T09:30:00Z,30.3288,-87.8293,2.182,5.91,1111122 
DISL,ioos:station:DISL:BSCA:1,2012-09-05T10:00:00Z,30.3288,-87.8293,2.182,5.76,1111122 
DISL,ioos:station:DISL:BSCA:1,2012-09-05T10:30:00Z,30.3288,-87.8293,2.182,5.73,1111122 
DISL,ioos:station:DISL:BSCA:1,2012-09-05T11:00:00Z,30.3288,-87.8293,2.184,5.74,1111122 
DISL,ioos:station:DISL:BSCA:1,2012-09-05T11:30:00Z,30.3288,-87.8293,2.188,5.56,1111122 
DISL,ioos:station:DISL:BSCA:1,2012-09-05T12:00:00Z,30.3288,-87.8293,2.148,5.59,1111122 
DISL,ioos:station:DISL:BSCA:1,2012-09-05T12:30:00Z,30.3288,-87.8293,2.109,5.66,1111122 
DISL,ioos:station:DISL:BSCA:1,2012-09-05T13:00:00Z,30.3288,-87.8293,2.114,5.7,1111122 
DISL,ioos:station:DISL:BSCA:1,2012-09-05T13:30:00Z,30.3288,-87.8293,2.1,5.57,1111122 
DISL,ioos:station:DISL:BSCA:1,2012-09-05T14:00:00Z,30.3288,-87.8293,2.039,5.78,1111122 
DISL,ioos:station:DISL:BSCA:1,2012-09-05T14:30:00Z,30.3288,-87.8293,2.012,5.74,1111122 
DISL,ioos:station:DISL:BSCA:1,2012-09-05T15:00:00Z,30.3288,-87.8293,1.977,5.62,1111122 
DISL,ioos:station:DISL:BSCA:1,2012-09-05T15:30:00Z,30.3288,-87.8293,1.967,5.63,1111122 
DISL,ioos:station:DISL:BSCA:1,2012-09-05T16:00:00Z,30.3288,-87.8293,1.944,5.48,1111122 
DISL,ioos:station:DISL:BSCA:1,2012-09-05T16:30:00Z,30.3288,-87.8293,1.932,5.67,1111122 
DISL,ioos:station:DISL:BSCA:1,2012-09-05T17:00:00Z,30.3288,-87.8293,1.912,5.4,1111122 
DISL,ioos:station:DISL:BSCA:1,2012-09-05T17:30:00Z,30.3288,-87.8293,1.878,5.69,1111122 
DISL,ioos:station:DISL:BSCA:1,2012-09-05T18:00:00Z,30.3288,-87.8293,1.863,5.65,1111122 
DISL,ioos:station:DISL:BSCA:1,2012-09-05T18:30:00Z,30.3288,-87.8293,1.841,5.59,1111122 
DISL,ioos:station:DISL:BSCA:1,2012-09-05T19:00:00Z,30.3288,-87.8293,1.844,5.4,1111122 
DISL,ioos:station:DISL:BSCA:1,2012-09-05T19:30:00Z,30.3288,-87.8293,1.858,5.56,1111122 
DISL,ioos:station:DISL:BSCA:1,2012-09-05T20:00:00Z,30.3288,-87.8293,1.883,5.5,1111122 
DISL,ioos:station:DISL:BSCA:1,2012-09-05T20:30:00Z,30.3288,-87.8293,1.865,5.57,1111122 
DISL,ioos:station:DISL:BSCA:1,2012-09-05T21:00:00Z,30.3288,-87.8293,1.891,6.24,1111122 
DISL,ioos:station:DISL:BSCA:1,2012-09-05T21:30:00Z,30.3288,-87.8293,1.902,5.76,1111122 
DISL,ioos:station:DISL:BSCA:1,2012-09-05T22:00:00Z,30.3288,-87.8293,1.896,6.21,1111122 
DISL,ioos:station:DISL:BSCA:1,2012-09-05T22:30:00Z,30.3288,-87.8293,1.902,6.58,1111122 
DISL,ioos:station:DISL:BSCA:1,2012-09-05T23:00:00Z,30.3288,-87.8293,1.917,7.1,1111122 
DISL,ioos:station:DISL:BSCA:1,2012-09-05T23:30:00Z,30.3288,-87.8293,1.917,7.13,1111122 
DISL,ioos:station:DISL:BSCA:1,2012-09-06T00:00:00Z,30.3288,-87.8293,1.92,7.08,1111122 
DISL,ioos:station:DISL:BSCA:1,2012-09-06T00:30:00Z,30.3288,-87.8293,1.934,5.95,1111122 
DISL,ioos:station:DISL:BSCA:1,2012-09-06T01:00:00Z,30.3288,-87.8293,1.954,5.04,1111122 
DISL,ioos:station:DISL:BSCA:1,2012-09-06T01:30:00Z,30.3288,-87.8293,1.964,4.75,1111122 
DISL,ioos:station:DISL:BSCA:1,2012-09-06T02:00:00Z,30.3288,-87.8293,2.004,4.84,1111122 
DISL,ioos:station:DISL:BSCA:1,2012-09-06T02:30:00Z,30.3288,-87.8293,2.039,4.67,1111122 
DISL,ioos:station:DISL:BSCA:1,2012-09-06T03:00:00Z,30.3288,-87.8293,2.055,3.78,1111122 
DISL,ioos:station:DISL:BSCA:1,2012-09-06T03:30:00Z,30.3288,-87.8293,2.085,3.65,1111122 
DISL,ioos:station:DISL:BSCA:1,2012-09-06T04:00:00Z,30.3288,-87.8293,2.096,3.67,1111122 
DISL,ioos:station:DISL:BSCA:1,2012-09-06T04:30:00Z,30.3288,-87.8293,2.113,4.51,1111122 
DISL,ioos:station:DISL:BSCA:1,2012-09-06T05:00:00Z,30.3288,-87.8293,2.133,4.39,1111122 
DISL,ioos:station:DISL:BSCA:1,2012-09-06T05:30:00Z,30.3288,-87.8293,2.146,4.83,1111122 
DISL,ioos:station:DISL:BSCA:1,2012-09-06T06:00:00Z,30.3288,-87.8293,2.156,5.02,1111122 
DISL,ioos:station:DISL:BSCA:1,2012-09-06T06:30:00Z,30.3288,-87.8293,2.148,4.47,1111122 
DISL,ioos:station:DISL:BSCA:1,2012-09-06T07:00:00Z,30.3288,-87.8293,2.187,5.06,1111122 
DISL,ioos:station:DISL:BSCA:1,2012-09-06T07:30:00Z,30.3288,-87.8293,2.205,4.97,1111122 
DISL,ioos:station:DISL:BSCA:1,2012-09-06T08:00:00Z,30.3288,-87.8293,2.222,5.13,1111122 
DISL,ioos:station:DISL:BSCA:1,2012-09-06T08:30:00Z,30.3288,-87.8293,2.241,6.03,1111122 
DISL,ioos:station:DISL:BSCA:1,2012-09-06T09:00:00Z,30.3288,-87.8293,2.222,5.76,1111122 
DISL,ioos:station:DISL:BSCA:1,2012-09-06T09:30:00Z,30.3288,-87.8293,2.22,5.36,1111122 
DISL,ioos:station:DISL:BSCA:1,2012-09-06T10:00:00Z,30.3288,-87.8293,2.197,4.89,1111122 
DISL,ioos:station:DISL:BSCA:1,2012-09-06T10:30:00Z,30.3288,-87.8293,2.19,4.56,1111122 
DISL,ioos:station:DISL:BSCA:1,2012-09-06T11:00:00Z,30.3288,-87.8293,2.18,5.01,1111122 
DISL,ioos:station:DISL:BSCA:1,2012-09-06T11:30:00Z,30.3288,-87.8293,2.165,5.67,1111122 
DISL,ioos:station:DISL:BSCA:1,2012-09-06T12:00:00Z,30.3288,-87.8293,2.153,5.2,1111122 
DISL,ioos:station:DISL:BSCA:1,2012-09-06T12:30:00Z,30.3288,-87.8293,2.134,5.3,1111122 
DISL,ioos:station:DISL:BSCA:1,2012-09-06T13:00:00Z,30.3288,-87.8293,2.094,5.91,1111122 
DISL,ioos:station:DISL:BSCA:1,2012-09-06T13:30:00Z,30.3288,-87.8293,2.058,5.36,1111122 
DISL,ioos:station:DISL:BSCA:1,2012-09-06T14:00:00Z,30.3288,-87.8293,2.021,5.38,1111122 
DISL,ioos:station:DISL:BSCA:1,2012-09-06T14:30:00Z,30.3288,-87.8293,1.991,6.31,1111122 
DISL,ioos:station:DISL:BSCA:1,2012-09-06T15:00:00Z,30.3288,-87.8293,1.979,6.34,1111122 
DISL,ioos:station:DISL:BSCA:1,2012-09-06T15:30:00Z,30.3288,-87.8293,1.966,6.55,1111122 